Torna al catalogo

STARLINK-30508

AttivoComunicazioniVLEO
NORAD 57979·PAYLOAD·🇺🇸 United States

Lanciato Sep 30, 2023 da Cape Canaveral Space Force Station

Loading…

Prossimi Passaggi (prossime 24 ore)

TLE

AggiornatoSource: CelesTrak SupGP

Epoca: Sep 14, 2026, 21:13 UTC

1 57979C 23151R   26257.88451389  .00013254  00000+0  48002-3 0  2575
2 57979  43.0034   2.3306 0001472 272.0735 203.7859 15.27573960    17

Traccia STARLINK-30508 in tempo reale con AllMySat

Download on the App Store